This is the latest recevied weather packets stored in our database for station/object 4S6DRJ-13. If no packets are shown the sender has not sent any weather packets the latest 10 day(s).
| Time | Temp. | Humidity | Pressure | Rain* | Wind** | Luminosity | Snow |
|---|---|---|---|---|---|---|---|
| 1787914470 | 30° C | 76% | 1007.7 hPa | 0 mm | 1.79 m/s, 261° | 168 W/m² | - |
| 1787914409 | 30° C | 76% | 1007.6 hPa | 0 mm | 1.79 m/s, 345° | 165 W/m² | - |
| 1787914349 | 30° C | 76% | 1007.6 hPa | 0 mm | 1.79 m/s, 264° | 175 W/m² | - |
| 1787914287 | 30° C | 76% | 1007.5 hPa | 0 mm | 2.68 m/s, 321° | 393 W/m² | - |
| 1787914226 | 30° C | 76% | 1007.7 hPa | 0 mm | 1.79 m/s, 332° | 532 W/m² | - |
| 1787914165 | 30.56° C | 76% | 1007.5 hPa | 0 mm | 1.34 m/s, 213° | 537 W/m² | - |
| 1787914104 | 30.56° C | 76% | 1007.5 hPa | 0 mm | 1.79 m/s, 82° | 307 W/m² | - |
| 1787914043 | 30° C | 76% | 1007.6 hPa | 0 mm | 1.79 m/s, 226° | 290 W/m² | - |
| 1787913982 | 30° C | 76% | 1007.6 hPa | 0 mm | 1.79 m/s, 312° | 309 W/m² | - |
| 1787913921 | 30° C | 76% | 1007.5 hPa | 0 mm | 1.34 m/s, 260° | 296 W/m² | - |
| 1787913860 | 30° C | 76% | 1007.6 hPa | 0 mm | 0.89 m/s, 258° | 499 W/m² | - |
| 1787913799 | 30° C | 77% | 1007.6 hPa | 0 mm | 2.24 m/s, 350° | 504 W/m² | - |
| 1787913738 | 30° C | 77% | 1007.7 hPa | 0 mm | 0.45 m/s, 329° | 502 W/m² | - |
| 1787913677 | 30° C | 77% | 1007.6 hPa | 0 mm | 1.79 m/s, 264° | 503 W/m² | - |
| 1787913626 | 30° C | 77% | 1007.7 hPa | 0 mm | 2.68 m/s, 217° | 254 W/m² | - |
| 1787913555 | 30° C | 77% | 1007.7 hPa | 0 mm | 1.79 m/s, 279° | 232 W/m² | - |
| 1787913494 | 30° C | 77% | 1007.6 hPa | 0 mm | 1.34 m/s, 282° | 225 W/m² | - |
| 1787913433 | 30° C | 78% | 1007.7 hPa | 0 mm | 0.89 m/s, 221° | 251 W/m² | - |
| 1787913372 | 30° C | 77% | 1007.6 hPa | 0 mm | 0.89 m/s, 106° | 271 W/m² | - |
| 1787913312 | 30° C | 77% | 1007.7 hPa | 0 mm | 1.79 m/s, 20° | 235 W/m² | - |
| 1787913250 | 30° C | 77% | 1007.7 hPa | 0 mm | 2.68 m/s, 301° | 211 W/m² | - |
| 1787913189 | 30° C | 76% | 1007.5 hPa | 0 mm | 1.79 m/s, 202° | 317 W/m² | - |
| 1787913128 | 30° C | 76% | 1007.6 hPa | 0 mm | 4.02 m/s, 248° | 352 W/m² | - |
| 1787913067 | 30° C | 75% | 1007.6 hPa | 0 mm | 2.68 m/s, 210° | 272 W/m² | - |
| 1787913006 | 30° C | 76% | 1007.6 hPa | 0 mm | 2.24 m/s, 314° | 481 W/m² | - |
* Rain latest hour (hover to see other rain measurements)
** Current wind speed in m/s (hover to see current wind gust speed)